GW2922 Weather Reports


time (UTC)temp
F
wind
direction
speed
knots
gust
knots
rain 1hr
in
rain 24hr
in
rain mn
in
humidity
%
barometer
mb
20260906100935 55 111 0.9 1.7 0.00 0.00 0.00 82 1018.9
20260906100435 55 80 0.0 1.7 0.00 0.00 0.00 82 1018.9
20260906095930 55 100 0.9 0.9 0.00 0.00 0.00 82 1018.9
20260906095425 55 94 0.9 1.7 0.00 0.00 0.00 81 1018.9
20260906094920 55 66 0.9 1.7 0.00 0.00 0.00 81 1018.9
20260906094415 55 76 0.9 1.7 0.00 0.00 0.00 81 1018.9
20260906093911 55 32 0.9 1.7 0.00 0.00 0.00 81 1018.9
20260906093407 55 56 0.0 1.7 0.00 0.00 0.00 81 1018.9
20260906092906 56 355 2.6 6.1 0.00 0.00 0.00 81 1018.9
20260906092401 56 95 0.0 1.7 0.00 0.00 0.00 81 1018.9
20260906091856 56 57 0.9 2.6 0.00 0.00 0.00 81 1019.2
20260906091352 56 54 0.9 1.7 0.00 0.00 0.00 81 1018.9
20260906090849 56 54 1.7 5.2 0.00 0.00 0.00 82 1018.9
20260906090348 56 88 0.9 5.2 0.00 0.00 0.00 82 1018.9
20260906085842 55 105 0.9 1.7 0.00 0.00 0.00 83 1019.2
20260906085336 55 18 0.9 1.7 0.00 0.00 0.00 83 1019.2
20260906084831 56 86 0.9 1.7 0.00 0.00 0.00 82 1019.2
20260906084331 56 107 0.0 1.7 0.00 0.00 0.00 82 1019.2
20260906083825 56 334 1.7 2.6 0.00 0.00 0.00 82 1019.2
20260906083321 56 97 0.9 2.6 0.00 0.00 0.00 83 1019.2
20260906082815 56 148 0.9 1.7 0.00 0.00 0.00 83 1019.6
20260906082310 56 12 1.7 1.7 0.00 0.00 0.00 83 1019.6
20260906081806 56 92 0.9 2.6 0.00 0.00 0.00 83 1019.6
20260906081302 55 40 0.9 1.7 0.00 0.00 0.00 83 1019.6
20260906080758 55 76 0.9 1.7 0.00 0.00 0.00 84 1019.6
20260906080254 55 92 0.0 1.7 0.00 0.00 0.00 84 1019.6
20260906075753 55 102 0.0 0.9 0.00 0.00 0.00 83 1019.6
20260906075252 56 340 2.6 3.5 0.00 0.00 0.00 83 1019.6
20260906074748 56 98 0.9 1.7 0.00 0.00 0.00 83 1019.6
20260906074247 56 12 0.9 3.5 0.00 0.00 0.00 83 1019.2
20260906073748 55 12 2.6 5.2 0.00 0.00 0.00 83 1019.6
20260906073248 55 330 0.9 2.6 0.00 0.00 0.00 84 1019.6
20260906072743 55 75 0.0 0.9 0.00 0.00 0.00 84 1019.6
20260906072239 55 94 0.9 1.7 0.00 0.00 0.00 84 1019.6
20260906071735 55 70 0.0 1.7 0.00 0.00 0.00 83 1019.6
20260906071235 55 79 0.9 2.6 0.00 0.00 0.00 83 1019.6
20260906070731 55 54 0.9 2.6 0.00 0.00 0.00 83 1019.6
20260906070227 55 86 0.9 2.6 0.00 0.00 0.00 83 1019.6
20260906065726 55 87 0.9 1.7 0.00 0.00 0.00 83 1019.6
20260906065222 55 305 1.7 2.6 0.00 0.00 0.00 84 1019.6
20260906064717 55 100 0.0 0.9 0.00 0.00 0.00 83 1019.6
20260906064213 56 194 0.9 1.7 0.00 0.00 0.00 83 1019.6
20260906063708 56 86 0.0 5.2 0.00 0.00 0.00 83 1019.6
20260906063203 56 357 0.9 2.6 0.00 0.00 0.00 83 1019.6
20260906062659 56 82 1.7 1.7 0.00 0.00 0.00 83 1019.6
20260906062158 56 47 0.9 3.5 0.00 0.00 0.00 82 1019.6
20260906061654 56 331 1.7 3.5 0.00 0.00 0.00 82 1019.6
20260906061149 56 95 0.0 1.7 0.00 0.00 0.00 82 1019.9
20260906060645 57 90 0.9 1.7 0.00 0.00 0.00 81 1019.6
20260906060142 57 106 0.0 0.9 0.00 0.00 0.00 81 1019.6
20260906055638 57 34 1.7 1.7 0.00 0.00 0.00 80 1019.6
20260906055133 57 94 0.0 3.5 0.00 0.00 0.00 80 1019.6
20260906054628 58 85 0.9 2.6 0.00 0.00 0.00 79 1019.9
20260906054123 58 338 1.7 1.7 0.00 0.00 0.00 79 1019.9
20260906053620 58 86 0.9 0.9 0.00 0.00 0.00 77 1019.9
20260906053119 59 78 0.9 0.9 0.00 0.00 0.00 76 1019.9
20260906052615 59 87 0.0 0.9 0.00 0.00 0.00 75 1019.9
20260906052112 59 102 0.0 2.6 0.00 0.00 0.00 75 1019.9
20260906051608 58 79 0.9 3.5 0.00 0.00 0.00 76 1019.9
20260906051057 58 97 0.9 1.7 0.00 0.00 0.00 76 1019.9
20260906050552 58 101 0.9 1.7 0.00 0.00 0.00 77 1019.9
20260906050048 59 81 0.9 0.9 0.00 0.00 0.00 76 1019.9
20260906045546 59 102 0.0 0.0 0.00 0.00 0.00 76 1019.9
20260906045041 59 118 0.0 1.7 0.00 0.00 0.00 76 1019.9
20260906044531 59 102 0.0 0.9 0.00 0.00 0.00 76 1019.9
20260906044026 59 100 0.0 0.9 0.00 0.00 0.00 76 1019.9
20260906043522 58 99 0.0 0.9 0.00 0.00 0.00 77 1019.9
20260906043019 58 105 0.0 0.9 0.00 0.00 0.00 77 1019.9
20260906042516 58 104 0.0 0.0 0.00 0.00 0.00 77 1019.9
20260906042011 58 104 0.0 0.0 0.00 0.00 0.00 77 1020.2
20260906041508 58 112 0.0 1.7 0.00 0.00 0.00 77 1020.2
20260906041007 59 117 0.0 0.0 0.00 0.00 0.00 77 1020.2
20260906040502 59 120 0.0 0.0 0.00 0.00 0.00 76 1020.2
20260906035957 59 109 0.0 0.9 0.00 0.00 0.00 76 1020.2
20260906035452 59 105 0.0 0.0 0.00 0.00 0.00 77 1020.2
20260906034949 59 109 0.0 0.9 0.00 0.00 0.00 77 1020.2
20260906034448 59 101 0.0 0.9 0.00 0.00 0.00 77 1020.2
20260906033938 59 96 0.0 0.9 0.00 0.00 0.00 78 1020.2
20260906033432 59 109 0.0 0.9 0.00 0.00 0.00 78 1020.2
20260906032928 59 105 0.0 0.9 0.00 0.00 0.00 79 1020.2
20260906032425 58 145 0.0 2.6 0.00 0.00 0.00 79 1020.2
20260906031918 58 75 0.0 0.9 0.00 0.00 0.00 80 1020.2
20260906031414 58 95 0.0 2.6 0.00 0.00 0.00 80 1020.2
20260906030909 58 98 0.0 0.9 0.00 0.00 0.00 80 1020.2
20260906030404 58 48 0.9 0.9 0.00 0.00 0.00 80 1020.2
20260906025859 59 103 0.0 2.6 0.00 0.00 0.00 79 1020.6
20260906025358 59 85 0.0 0.9 0.00 0.00 0.00 79 1020.2
20260906024857 59 101 0.0 0.9 0.00 0.00 0.00 79 1020.2
20260906024357 59 295 0.9 1.7 0.00 0.00 0.00 78 1020.2
20260906023852 60 106 0.9 1.7 0.00 0.00 0.00 78 1020.2
20260906023349 60 352 0.9 2.6 0.00 0.00 0.00 77 1020.2
20260906022849 62 9 1.7 2.6 0.00 0.00 0.00 73 1020.6
20260906022344 63 44 2.6 6.1 0.00 0.00 0.00 71 1020.2
20260906021840 64 20 0.9 1.7 0.00 0.00 0.00 67 1020.2
20260906021339 64 276 3.5 5.2 0.00 0.00 0.00 66 1019.9
20260906020834 65 106 0.0 0.9 0.00 0.00 0.00 64 1020.2
20260906020333 65 107 0.9 2.6 0.00 0.00 0.00 63 1019.9
20260906015828 65 89 0.9 1.7 0.00 0.00 0.00 63 1019.9
20260906015326 66 104 1.7 2.6 0.00 0.00 0.00 62 1019.9
20260906014821 66 214 1.7 2.6 0.00 0.00 0.00 61 1019.9
20260906014316 67 95 0.0 0.9 0.00 0.00 0.00 60 1019.6
20260906013812 67 159 0.9 0.9 0.00 0.00 0.00 59 1019.9
20260906013307 67 90 0.9 0.9 0.00 0.00 0.00 58 1019.9
20260906012803 67 104 0.0 1.7 0.00 0.00 0.00 58 1019.9
20260906012258 68 68 0.9 2.6 0.00 0.00 0.00 58 1019.6
20260906011752 68 70 1.7 1.7 0.00 0.00 0.00 58 1019.6
20260906011251 68 67 0.9 3.5 0.00 0.00 0.00 57 1019.6
20260906010747 69 319 1.7 1.7 0.00 0.00 0.00 57 1019.6
20260906010244 70 98 0.9 1.7 0.00 0.00 0.00 56 1019.6
20260906005738 69 110 0.9 1.7 0.00 0.00 0.00 57 1019.6
20260906005237 69 109 0.9 1.7 0.00 0.00 0.00 57 1019.6
20260906004731 69 109 0.9 3.5 0.00 0.00 0.00 57 1019.6
20260906004226 69 345 0.9 1.7 0.00 0.00 0.00 57 1019.6
20260906003722 69 200 2.6 3.5 0.00 0.00 0.00 57 1019.6
20260906003217 71 145 0.0 1.7 0.00 0.00 0.00 54 1019.2
20260906002711 71 121 0.0 1.7 0.00 0.00 0.00 55 1019.2
20260906002201 72 38 1.7 2.6 0.00 0.00 0.00 53 1019.2
20260906001656 73 2 0.9 1.7 0.00 0.00 0.00 48 1019.2
20260906001156 72 105 0.9 1.7 0.00 0.00 0.00 49 1019.2
20260906000652 72 184 1.7 1.7 0.00 0.00 0.00 50 1019.2
20260906000147 73 112 2.6 5.2 0.00 0.00 0.00 51 1019.2
20260905235646 72 177 1.7 3.5 0.00 0.00 0.00 51 1019.2
20260905235141 72 167 2.6 2.6 0.00 0.00 0.00 51 1019.2
20260905234636 71 122 0.0 3.5 0.00 0.00 0.00 52 1019.2
20260905234131 70 100 2.6 5.2 0.00 0.00 0.00 53 1019.2
20260905233626 71 94 4.3 6.1 0.00 0.00 0.00 52 1019.2
20260905233120 72 82 1.7 7.0 0.00 0.00 0.00 52 1019.2
20260905232616 71 107 0.9 1.7 0.00 0.00 0.00 53 1019.2
20260905232111 71 103 0.9 1.7 0.00 0.00 0.00 54 1019.2
20260905231606 72 174 2.6 2.6 0.00 0.00 0.00 53 1019.2
20260905231102 72 154 1.7 2.6 0.00 0.00 0.00 53 1019.6
20260905230602 73 101 1.7 1.7 0.00 0.00 0.00 52 1019.6
20260905230100 72 110 0.0 1.7 0.00 0.00 0.00 54 1019.6
20260905225554 71 110 0.9 2.6 0.00 0.00 0.00 56 1019.6
20260905225049 71 115 0.9 1.7 0.00 0.00 0.00 55 1019.6
20260905224544 71 122 0.9 1.7 0.00 0.00 0.00 56 1019.6
20260905224043 72 95 1.7 3.5 0.00 0.00 0.00 55 1019.6
20260905223541 71 85 0.9 1.7 0.00 0.00 0.00 56 1019.6
20260905223037 70 98 0.9 1.7 0.00 0.00 0.00 57 1019.6
20260905222537 71 49 1.7 2.6 0.00 0.00 0.00 56 1019.6
20260905222032 72 51 1.7 2.6 0.00 0.00 0.00 54 1019.6
20260905221529 71 354 0.9 3.5 0.00 0.00 0.00 55 1019.6
20260905221024 71 27 0.9 1.7 0.00 0.00 0.00 56 1019.6
20260905220520 71 86 1.7 5.2 0.00 0.00 0.00 56 1019.6
20260905220016 70 77 0.9 2.6 0.00 0.00 0.00 57 1019.6
20260905215509 70 53 1.7 2.6 0.00 0.00 0.00 56 1019.6
20260905215000 70 71 1.7 3.5 0.00 0.00 0.00 57 1019.6
20260905214456 70 40 2.6 5.2 0.00 0.00 0.00 58 1019.6
20260905213956 71 0 2.6 3.5 0.00 0.00 0.00 56 1019.6
20260905213452 71 71 1.7 2.6 0.00 0.00 0.00 57 1019.9
20260905212946 70 83 1.7 1.7 0.00 0.00 0.00 58 1019.6
20260905212436 69 323 2.6 3.5 0.00 0.00 0.00 60 1019.6
20260905211935 71 180 0.9 1.7 0.00 0.00 0.00 57 1019.9
20260905211431 69 47 1.7 3.5 0.00 0.00 0.00 59 1019.9
20260905210926 70 88 0.0 1.7 0.00 0.00 0.00 58 1019.9
20260905210421 69 87 0.9 0.9 0.00 0.00 0.00 57 1019.9
20260905205920 70 103 0.9 2.6 0.00 0.00 0.00 59 1019.9
20260905205415 69 114 0.0 2.6 0.00 0.00 0.00 59 1019.9
20260905204914 69 62 0.9 1.7 0.00 0.00 0.00 59 1019.9
20260905204410 69 59 0.9 1.7 0.00 0.00 0.00 59 1019.9
20260905203909 69 91 0.0 2.6 0.00 0.00 0.00 60 1019.9
20260905203405 69 108 0.9 2.6 0.00 0.00 0.00 59 1019.9
20260905202900 69 112 1.7 1.7 0.00 0.00 0.00 58 1020.2
20260905202355 69 43 1.7 3.5 0.00 0.00 0.00 59 1019.9
20260905201850 69 77 0.9 1.7 0.00 0.00 0.00 60 1020.2
20260905201345 69 46 2.6 3.5 0.00 0.00 0.00 60 1019.9
20260905200840 69 39 2.6 5.2 0.00 0.00 0.00 61 1019.9
20260905200336 68 93 0.0 3.5 0.00 0.00 0.00 63 1019.9
20260905195833 68 117 0.9 1.7 0.00 0.00 0.00 61 1019.9
20260905195328 69 102 0.0 0.9 0.00 0.00 0.00 60 1019.9
20260905194825 67 66 0.0 3.5 0.00 0.00 0.00 64 1019.9
20260905194319 68 50 1.7 2.6 0.00 0.00 0.00 63 1019.9
20260905193818 66 103 0.0 3.5 0.00 0.00 0.00 66 1019.9
20260905193313 67 82 1.7 3.5 0.00 0.00 0.00 65 1019.9
20260905192809 68 42 1.7 2.6 0.00 0.00 0.00 63 1019.9
20260905192306 69 93 0.9 1.7 0.00 0.00 0.00 63 1020.2
20260905191804 67 116 0.0 1.7 0.00 0.00 0.00 65 1019.9
20260905191302 66 118 1.7 7.0 0.00 0.00 0.00 68 1019.9
20260905190801 66 124 2.6 7.8 0.00 0.00 0.00 68 1020.2
20260905190255 66 135 0.9 7.8 0.00 0.00 0.00 69 1020.2
20260905185754 66 193 1.7 6.1 0.00 0.00 0.00 70 1020.2
20260905185249 66 176 4.3 7.0 0.00 0.00 0.00 69 1020.2
20260905184748 66 107 0.0 5.2 0.00 0.00 0.00 70 1019.9
20260905184242 65 133 2.6 7.0 0.00 0.00 0.00 71 1020.2
20260905183741 65 233 1.7 5.2 0.00 0.00 0.00 71 1020.2
20260905183236 66 184 4.3 6.1 0.00 0.00 0.00 70 1020.2
20260905182731 66 175 1.7 5.2 0.00 0.00 0.00 69 1020.2
20260905182230 66 112 1.7 1.7 0.00 0.00 0.00 69 1020.2
20260905181726 65 166 6.1 7.0 0.00 0.00 0.00 69 1020.2
20260905181224 66 88 1.7 5.2 0.00 0.00 0.00 68 1020.2
20260905180719 66 102 0.9 2.6 0.00 0.00 0.00 68 1020.2
20260905180214 66 177 6.1 7.0 0.00 0.00 0.00 66 1020.2
20260905175709 65 114 1.7 3.5 0.00 0.00 0.00 68 1020.6
20260905175204 65 149 2.6 3.5 0.00 0.00 0.00 68 1020.6
20260905174659 65 117 1.7 5.2 0.00 0.00 0.00 69 1020.6
20260905174155 65 86 1.7 5.2 0.00 0.00 0.00 69 1020.6
20260905173650 65 146 0.9 3.5 0.00 0.00 0.00 70 1020.2
20260905173146 65 183 1.7 3.5 0.00 0.00 0.00 68 1020.6
20260905172645 66 108 0.0 2.6 0.00 0.00 0.00 68 1020.2
20260905172139 65 95 0.0 2.6 0.00 0.00 0.00 68 1020.2
20260905171635 65 149 0.9 0.9 0.00 0.00 0.00 69 1020.2
20260905171131 64 140 0.0 0.9 0.00 0.00 0.00 71 1020.6
20260905170627 64 65 0.9 0.9 0.00 0.00 0.00 71 1020.2
20260905170122 63 218 0.9 1.7 0.00 0.00 0.00 71 1020.2
20260905165617 63 178 1.7 3.5 0.00 0.00 0.00 71 1020.2
20260905165112 63 180 1.7 1.7 0.00 0.00 0.00 72 1020.2
20260905164602 62 146 1.7 2.6 0.00 0.00 0.00 73 1020.2
20260905164101 61 157 0.0 0.9 0.00 0.00 0.00 73 1019.9
20260905163558 61 171 0.0 0.9 0.00 0.00 0.00 74 1019.9
20260905163054 60 197 2.6 3.5 0.00 0.00 0.00 76 1020.2
20260905162550 59 36 0.9 2.6 0.00 0.00 0.00 76 1019.9
20260905162044 60 303 0.9 1.7 0.00 0.00 0.00 76 1019.6
20260905161543 59 234 0.9 1.7 0.00 0.00 0.00 76 1019.9
20260905161041 59 80 0.9 0.9 0.00 0.00 0.00 77 1019.9
20260905160540 59 81 0.9 0.9 0.00 0.00 0.00 77 1019.9
20260905160035 59 124 0.0 0.0 0.00 0.00 0.00 77 1019.9
20260905155534 59 78 0.9 1.7 0.00 0.00 0.00 77 1019.9
20260905155033 58 103 0.0 0.9 0.00 0.00 0.00 77 1019.9
20260905154528 58 104 0.0 1.7 0.00 0.00 0.00 77 1019.9
20260905154024 58 86 0.0 0.9 0.00 0.00 0.00 77 1019.9
20260905153520 58 99 0.0 1.7 0.00 0.00 0.00 77 1019.9
20260905153019 58 87 0.0 1.7 0.00 0.00 0.00 77 1019.9
20260905152514 57 296 0.9 0.9 0.00 0.00 0.00 77 1020.2
20260905152009 57 97 0.0 0.9 0.00 0.00 0.00 77 1019.9
20260905151504 57 70 0.9 0.9 0.00 0.00 0.00 77 1019.9
20260905150959 57 99 0.0 0.9 0.00 0.00 0.00 77 1019.9
20260905150454 57 112 0.0 1.7 0.00 0.00 0.00 77 1019.9
20260905145951 56 100 0.0 1.7 0.00 0.00 0.00 77 1019.9
20260905145445 56 103 0.0 0.0 0.00 0.00 0.00 78 1019.9
20260905144945 55 104 0.0 1.7 0.00 0.00 0.00 78 1019.9
20260905144441 55 101 0.0 0.0 0.00 0.00 0.00 81 1019.9
20260905143939 55 206 0.0 1.7 0.00 0.00 0.00 81 1019.9
20260905143438 55 112 0.0 0.9 0.00 0.00 0.00 83 1019.9
20260905142933 55 124 0.0 0.0 0.00 0.00 0.00 84 1019.9
20260905142432 54 112 0.0 0.9 0.00 0.00 0.00 86 1019.6
20260905141928 53 114 0.0 0.0 0.00 0.00 0.00 87 1019.6
20260905141422 53 99 0.0 0.0 0.00 0.00 0.00 88 1019.6
20260905140919 53 101 0.0 0.9 0.00 0.00 0.00 88 1019.6
20260905140414 53 109 0.0 0.0 0.00 0.00 0.00 89 1019.6
20260905135912 53 102 0.0 0.0 0.00 0.00 0.00 89 1019.6
20260905135408 52 100 0.0 0.0 0.00 0.00 0.00 89 1019.6
20260905134904 52 105 0.0 0.0 0.00 0.00 0.00 89 1019.6
20260905134403 52 114 0.0 0.9 0.00 0.00 0.00 90 1019.6
20260905133857 52 172 0.9 0.9 0.00 0.00 0.00 90 1019.6
20260905133352 51 96 0.0 0.0 0.00 0.00 0.00 90 1019.6
20260905132851 51 103 0.0 0.0 0.00 0.00 0.00 91 1019.6
20260905132346 51 103 0.0 0.0 0.00 0.00 0.00 91 1019.6
20260905131841 51 89 0.0 0.0 0.00 0.00 0.00 91 1019.6
20260905131336 51 89 0.0 0.0 0.00 0.00 0.00 91 1019.6
20260905130832 51 103 0.0 0.0 0.00 0.00 0.00 91 1019.6
20260905130330 51 106 0.0 0.0 0.00 0.00 0.00 91 1019.6
20260905125826 51 106 0.0 0.0 0.00 0.00 0.00 91 1019.6
20260905125321 51 106 0.0 0.0 0.00 0.00 0.00 91 1019.6
20260905124817 51 77 0.0 0.9 0.00 0.00 0.00 91 1019.6
20260905124313 51 105 0.0 0.0 0.00 0.00 0.00 91 1019.6
20260905123808 51 88 0.0 0.9 0.00 0.00 0.00 91 1019.6
20260905123305 51 104 0.0 0.0 0.00 0.00 0.00 91 1019.6
20260905122804 51 104 0.0 0.0 0.00 0.00 0.00 91 1019.6
20260905122306 51 102 0.0 0.0 0.00 0.00 0.00 91 1019.6
20260905121759 51 104 0.0 0.0 0.00 0.00 0.00 91 1019.6
20260905121256 51 104 0.0 0.0 0.00 0.00 0.00 91 1019.6
20260905120754 51 103 0.0 0.0 0.00 0.00 0.00 91 1019.6
20260905120253 51 104 0.0 0.0 0.00 0.00 0.00 91 1019.2
20260905115748 51 104 0.0 0.0 0.00 0.00 0.00 91 1019.6
20260905115243 51 118 0.0 0.0 0.00 0.00 0.00 91 1019.2
20260905114742 51 127 0.0 0.0 0.00 0.00 0.00 91 1019.2
20260905114241 51 124 0.0 0.0 0.00 0.00 0.00 91 1019.2
20260905113740 51 132 0.0 0.0 0.00 0.00 0.00 91 1019.2
20260905113236 51 113 0.0 0.0 0.00 0.00 0.00 90 1019.2
20260905112731 51 113 0.0 0.0 0.00 0.00 0.00 90 1019.2
20260905112226 51 113 0.0 0.0 0.00 0.00 0.00 90 1019.6
20260905111721 51 114 0.0 0.0 0.00 0.00 0.00 90 1019.2
20260905111215 52 113 0.0 0.0 0.00 0.00 0.00 90 1019.2
20260905110714 52 113 0.0 0.0 0.00 0.00 0.00 90 1019.2
20260905110209 52 99 0.0 0.9 0.00 0.00 0.00 90 1019.2
20260905105705 52 29 0.0 0.9 0.00 0.00 0.00 90 1019.2
20260905105203 52 119 0.0 0.0 0.00 0.00 0.00 90 1019.2
20260905104658 52 93 0.0 0.0 0.00 0.00 0.00 90 1019.2
20260905104154 52 112 0.0 0.0 0.00 0.00 0.00 90 1019.2
20260905103649 52 124 0.0 0.0 0.00 0.00 0.00 90 1019.2
20260905103145 52 128 0.0 0.0 0.00 0.00 0.00 90 1019.2
20260905102641 53 108 0.0 1.7 0.00 0.00 0.00 90 1019.2
20260905102137 53 110 0.0 1.7 0.00 0.00 0.00 91 1019.2
20260905101636 53 98 0.0 0.9 0.00 0.00 0.00 91 1019.2